Regional Weather Roundup
Issued by NWS

Home | Current Version | Previous Version | Graphics & Text | Print | Product List | Glossary On
Versions: 1 2 3 4 5 6 7 8 9 10 11 12 13 14 15 16 17 18 19 20 21 22 23 24 25 26 27 28 29 30 31 32 33 34 35 36 37 38 39 40 41 42 43 44 45 46 47 48 49 50
652
ASUS43 KLOT 290609
RWRIL

ILLINOIS REGIONAL WEATHER ROUNDUP
NATIONAL WEATHER SERVICE CHICAGO/ROMEOVILLE IL
100 AM CDT SAT JUL 29 2017

NOTE: "FAIR" INDICATES FEW OR NO CLOUDS BELOW 12,000 FEET WITH NO
SIGNIFICANT WEATHER AND/OR OBSTRUCTIONS TO VISIBILITY.

* THESE STATIONS ARE NOT UNDER NWS QUALITY CONTROL. THEY ALSO MAY NOT
  REPORT WEATHER SUCH AS PRECIPITATION OR FOG.

ILZ001-002-007-009-015-016-024-290700-
NORTHWEST ILLINOIS

CITY           SKY/WX    TMP DP  RH WIND       PRES   REMARKS
MOLINE         CLEAR     63  58  83 CALM      30.06R
6HR MIN TEMP:  62; 6HR MAX TEMP:  79;

STERLING*      CLEAR     62  58  86 NE3       30.07R
SAVANNA*       PTCLDY    63  61  93 CALM      30.08R
$$

ILZ003-004-008-010-011-017-018-290700-
NORTH CENTRAL ILLINOIS

CITY           SKY/WX    TMP DP  RH WIND       PRES   REMARKS
ROCKFORD       CLEAR     65  55  70 N7        30.07S
6HR MIN TEMP:  65; 6HR MAX TEMP:  78;

FREEPORT*      PTCLDY    57  55  93 CALM      30.10R
ROCHELLE*      PTCLDY    60  57  91 N5        30.06S
DE KALB*       CLEAR     61  57  86 N6        30.06S
PERU*          CLEAR     62  56  82 N3        30.05S
$$

ILZ005-006-012>014-019>023-290700-
NORTHEAST ILLINOIS

CITY           SKY/WX    TMP DP  RH WIND       PRES   REMARKS
CHICAGO-OHARE  PTCLDY    67  60  78 N7        30.04R
6HR MIN TEMP:  67; 6HR MAX TEMP:  75;

CHICAGO-MIDWAY MOCLDY    73  57  57 E13       30.03R
6HR MIN TEMP:  71; 6HR MAX TEMP:  76;

AURORA         CLEAR     62  58  86 N6        30.05R
6HR MIN TEMP:  60; 6HR MAX TEMP:  76;

LANSING*       CLEAR     67  54  62 E6        30.03S
JOLIET*        PTCLDY    67  60  77 N5        30.04R
WAUKEGAN       PTCLDY    68  65  90 NE9       30.05R
6HR MIN TEMP:  65; 6HR MAX TEMP:  72;

DUPAGE AIRPORT CLEAR     61  59  93 N7        30.04S
6HR MIN TEMP:  61; 6HR MAX TEMP:  75;

WHEELING       PTCLDY    66  64  93 N5        30.06R
6HR MIN TEMP:  65; 6HR MAX TEMP:  74;

MORRIS*        MOCLDY    61  58  90 CALM      30.03R
ROMEOVILLE*    PTCLDY    65  59  80 N7        30.04S
NORTHERLY ISL    N/A     71  58  63 E14         N/A
$$

LMZ740>746-290700-
SOUTHERN LAKE MICHIGAN

STATION/POSITION SKY/WX   TEMP    WIND        PRES    VSBY  WAVE
                          AIR SEA DIR/SP/G                  HT/PER
                          (F)     (DEG/KT/KT) (MB)    (MI)  (FT/S)
SOUTHERN BUOY              70 72   70/ 17/ 21 1017.1          4/ 6
WILMETTE HARBOR            71 71   80/ 16/ 19   N/A           4/ 6
HARRISON CRIB              72      80/ 20/ 22   N/A
BURNHAM HARBOR             71                   N/A
CALUMET HARBOR             72      60/ 13/ 17 1016.4R
BURNS HARBOR               70      70/ 14/ 16 1017.3R
MICHIGAN CITY              68      50/ 14/ 17   N/A
MICHIGAN CITY 6N           69 73   70/ 17/ 23   N/A           5/ 6
ST. JOSEPH                 66 69   80/ 12/ 17 1017.3          3/ 6
$$

ILZ025>027-034>036-040-047-049-050-058-095>099-290700-
WEST-CENTRAL ILLINOIS

CITY           SKY/WX    TMP DP  RH WIND       PRES   REMARKS
QUINCY         CLEAR     62  58  86 NE7       30.04R
GALESBURG*     CLEAR     58  57  95 CALM      30.07S
MACOMB*        CLEAR     60  58  94 N3        30.07S
JACKSONVILLE*  PTCLDY    64  61  90 N3        30.03S
PITTSFIELD*    PTCLDY    65  60  84 N3        30.04S
$$

ILZ028>032-037-038-041>044-048-051>054-059>061-290700-
CENTRAL ILLINOIS

CITY           SKY/WX    TMP DP  RH WIND       PRES   REMARKS
PONTIAC        CLEAR     62  61  97 N6        30.04R
BLOOMINGTON    CLEAR     64  59  83 N8        30.04S
DECATUR        CLEAR     64  60  87 NE8       30.01S
PEORIA         CLEAR     67  59  75 NE3       30.04S
6HR MIN TEMP:  67; 6HR MAX TEMP:  78;

LACON*         PTCLDY    60  59  96 CALM      30.04S
LINCOLN*       CLEAR     64  62  93 CALM      30.02S
SPRINGFIELD    CLEAR     65  62  90 N5        30.02S
6HR MIN TEMP:  65; 6HR MAX TEMP:  80;

TAYLORVILLE    CLEAR     62  61  96 N5        30.01S
6HR MIN TEMP:  62; 6HR MAX TEMP:  78;

$$

ILZ033-039-045-046-055>057-062-063-290700-
EAST-CENTRAL ILLINOIS

CITY           SKY/WX    TMP DP  RH WIND       PRES   REMARKS
CHAMPAIGN      CLEAR     66  60  81 NE12      30.01R
RANTOUL*       CLEAR     67  62  86 N8        30.01S
MATTOON        CLEAR     63  62  97 N6        29.98S
PARIS*         PTCLDY    64  62  94 N5        29.99S
$$

ILZ079-100>102-290700-
SOUTHWEST ILLINOIS

CITY           SKY/WX    TMP DP  RH WIND       PRES   REMARKS
ALTON          PTCLDY    66  63  89 N3        29.99S
BELLEVILLE     CLEAR     69  63  80 N9        29.98S
CAHOKIA*       PTCLDY    71  62  73 NE7       29.98R
SPARTA*        CLEAR     68  64  84 N5        29.97S
$$

ILZ064>066-069>071-074>076-080>082-084>086-088>090-092>094-290700-
SOUTH-CENTRAL ILLINOIS

CITY           SKY/WX    TMP DP  RH WIND       PRES   REMARKS
CARBONDALE     CLEAR     70  66  87 N6        29.94R
6HR MIN TEMP:  69; 6HR MAX TEMP:  82;

CAIRO*         CLEAR     72  67  85 N5        29.90F
EFFINGHAM*     CLEAR     67  65  91 N7        29.99S
MARION         CLEAR     70  70 100 N7        29.94S
MT. VERNON     CLEAR     69  64  84 NE8       29.95S
CENTRALIA*     CLEAR     70  65  85 N5        29.96R
SALEM*         CLEAR     69  64  84 N6        29.96S
METROPOLIS*    CLEAR     72  66  82 N5        29.91S
$$

ILZ067-068-072-073-078-083-087-091-290700-
SOUTHEAST ILLINOIS

CITY           SKY/WX    TMP DP  RH WIND       PRES   REMARKS
LAWRENCEVILLE  CLEAR     69  64  84 N9        29.94S
FLORA*         CLEAR     69  65  86 N7        29.96S
FAIRFIELD*     CLEAR     68  66  92 N3        29.93S
HARRISBURG*    CLEAR     70  65  84 N8        29.93S
ROBINSON*      CLEAR     66  64  93 N9        29.96S
CARMI*         CLEAR     66  65  94 N5        29.92S
$$

ABBREVIATIONS USED IN REMARKS
   TC - TEMPERATURE IN CELSIUS
  WCI - WIND CHILL INDEX
   HX - HEAT INDEX
  VSB - VISIBILITY
$$





USA.gov is the U.S. government's official web portal to all federal, state and local government web resources and services.